SCP
0 0 0 0 0 0 0 0 0 0 0 0 0 0 0 0 0 0 0 0 0 0 0 0 0 0 0 0 0 0 0 0
0 0 0 0 0 0 0 0 0 0 0 0 0 0 0 0 0 0 0 0 0 0 0 0 0 0 0 0 0 0 0 0
0 0 0 0 0 0 0 0 0 0 0 0 0 0 0 0 0 0 0 0 0 0 0 0 0 0 0 0 0 0 0 0
0 0 0 0 0 0 0 0 0 0 0 0 0 0 0 0 0 0 0 0 0 0 0 0 0 0 0 0 0 0 0 0
0 0 0 0 0 0 0 0 0 0 0 0 0 0 0 0 0 0 0 0 0 0 0 0 0 0 0 0 0 0 0 0
0 0 0 0 0 0 0 0 0 0 0 0 0 0 0 0 0 0 0 0 0 0 0 0 0 0 0 0 0 0 0 0
0 0 0 0 0 0 0 0 0 0 0 0 0 0 0 0 0 0 0 0 0 0 0 0 0 0 0 0 0 0 0 0
0 0 0 0 0 0 0 0 0 0 0 0 0 0 0 0 0 0 0 0 0 0 0 0 0 0 0 0 0 0 0 0
0 0 0 0 0 0 0 0 0 0 0 0 0 0 0 0 0 0 0 0 0 0 0 0 0 0 0 0 0 0 0 0
0 0 0 0 0 0 0 0 0 0 0 0 0 0 0 0 0 0 0 0 0 0 0 0 0 0 0 0 -0 0 0 0
0 0 0 0 0 0 0 0 0 0 0 0 0 0 0 0 0 0 0 0 0 0 0 0 0 0 0 -0 0 -0 -0 0
0 0 0 0 0 0 0 0 0 0 0 0 0 0 0 0 0 0 0 0 0 0 0 0 0 0 0 0 0 0 -0 0
0 0 0 0 0 0 0 0 0 0 0 0 0 0 0 0 0 0 0 0 -0 -0 0 0 0 0 0 0 0 0 -0 -0
0 0 0 0 0 0 0 0 0 0 0 0 0 0 0 0 0 0 0 0 0 0 0 0 0 0 -0 -0 -0 -0 -0 -0
0 0 0 0 0 0 0 0 0 0 0 0 0 0 0 0 0 0 0 0 0 0 -0 -0 -0 -0 -0 -0 -0 -0 -0 -0
0 0 0 0 0 0 0 0 0 0 0 0 0 0 0 0 0 0 0 0 0 0 0 0 -0 -0 -0 -0 -0 -0 -0 -0
0 0 0 0 0 0 0 0 0 0 0 0 0 0 0 0 0 0 0 0 0 0 0 -0 -0 -0 -0 -0 -0 0 0 0
0 0 0 0 0 0 0 0 0 0 0 0 0 0 0 0 0 0 0 0 0 0 0 0 0 0 0 0 0 0 0 0
0 0 0 0 0 0 0 0 0 0 0 0 0 0 0 0 0 0 0 0 0 0 0 -0 -0 0 0 0 0 0 0 0
0 0 0 0 0 0 0 0 0 0 0 0 0 0 0 0 0 0 0 0 0 0 0 0 -0 0 0 0 0 0 0 0
Wind_Speed_500mb
72 69 64 58 50 44 38 30 24 17 10 6 3 2 6 11 15 21 26 29 34 36 39 41 42 43 45 45 46 45 45 47
64 59 52 49 41 35 28 23 19 15 10 6 3 6 12 18 24 29 34 36 38 37 36 36 39 43 44 43 43 44 46 47
53 50 44 38 31 25 20 16 13 13 10 9 13 18 25 28 31 34 35 34 31 32 34 33 32 31 31 32 34 37 41 46
43 39 33 29 23 19 16 14 13 15 19 23 25 27 28 31 34 34 31 27 28 27 26 27 28 27 28 30 36 42 42 40
37 31 25 18 12 10 10 13 17 21 25 27 27 29 27 27 27 21 18 21 21 22 24 25 26 26 29 34 39 42 44 41
29 21 13 8 11 16 19 22 25 27 28 27 27 24 21 22 14 13 17 19 26 27 27 31 34 33 33 34 37 41 42 43
18 10 7 12 17 22 23 23 25 25 24 23 16 15 17 13 10 15 18 19 23 29 33 36 33 29 29 34 37 38 37 37
8 6 12 18 20 18 18 21 20 19 21 15 9 11 12 6 12 12 13 17 20 28 32 31 37 34 27 26 35 37 37 37
5 9 15 19 17 18 17 16 14 17 18 16 12 11 9 3 9 7 11 14 19 32 30 32 23 25 27 26 29 38 41 41
15 15 17 20 19 16 16 16 19 20 16 12 12 11 9 4 2 7 10 13 19 31 32 27 18 25 23 23 27 32 34 32
19 19 21 22 21 22 21 22 21 21 17 13 9 8 5 8 3 7 7 10 18 28 35 33 28 25 24 30 35 37 37 24
25 24 23 26 25 24 24 26 24 22 18 13 8 5 2 8 3 5 7 9 17 25 32 38 34 37 32 32 37 32 31 23
26 27 28 28 26 25 25 28 27 24 21 16 8 3 4 5 4 5 6 12 17 25 32 35 36 37 36 30 32 26 29 30
27 28 25 25 24 24 26 27 28 29 25 20 11 3 5 6 6 8 10 13 15 22 29 28 27 27 30 24 20 14 25 30
26 26 23 20 22 23 25 27 28 29 30 23 14 5 1 5 5 6 10 9 12 16 22 25 23 23 20 18 19 18 20 25
22 21 21 22 23 25 25 26 26 26 26 24 19 13 7 3 2 2 4 7 7 6 11 14 14 17 16 14 13 17 24 31
20 22 26 24 22 23 24 25 23 23 23 24 21 18 18 15 12 11 11 12 15 11 7 5 6 11 15 16 15 19 27 29
24 29 31 28 24 25 23 22 21 21 21 20 18 18 19 20 20 20 20 20 21 23 22 24 18 14 13 20 26 29 30 30
27 27 30 29 26 24 22 22 20 20 22 23 20 18 21 23 24 24 23 24 24 26 28 26 25 30 32 31 33 34 33 32
27 29 31 29 25 25 25 25 23 20 20 20 19 22 22 24 25 24 24 23 24 26 26 26 27 29 30 32 34 37 38 37
Wind_Direction_500mb
118 116 112 110 108 107 104 101 89 81 69 52 28 349 317 309 311 309 312 314 313 315 314 315 314 311 310 310 307 305 304 304
119 116 112 108 105 99 94 90 84 77 65 53 3 331 321 321 314 313 317 319 320 321 319 319 318 319 317 310 306 303 303 305
116 112 109 106 104 96 87 79 66 48 16 352 345 340 330 322 317 317 320 324 325 326 325 324 323 323 321 316 316 313 308 306
115 113 110 106 97 80 55 36 13 355 331 329 326 321 313 310 312 318 325 329 336 338 341 336 336 328 321 321 319 320 319 325
118 112 103 92 70 40 355 343 335 323 324 321 319 317 314 315 325 330 336 349 355 351 345 344 339 329 320 319 315 317 324 325
120 110 90 49 1 339 328 324 321 320 318 314 312 310 312 325 344 358 3 16 356 349 348 343 335 331 324 326 329 332 328 327
110 89 24 346 333 330 331 328 328 329 328 327 314 310 332 360 30 24 24 12 357 359 351 340 339 342 338 336 338 343 358 13
89 21 350 334 332 338 332 334 343 346 345 337 321 341 342 28 33 35 8 7 3 360 356 3 0 1 7 4 6 2 11 11
16 2 357 354 350 349 0 10 9 9 355 337 323 326 340 66 30 352 349 356 351 357 6 10 21 19 21 15 17 10 7 2
47 30 30 26 25 31 34 21 14 1 348 331 318 320 328 148 10 316 336 348 344 354 11 18 24 20 39 21 4 355 352 360
63 53 52 49 41 32 24 17 6 356 345 336 314 315 327 162 271 314 316 334 352 357 13 15 20 11 18 19 14 8 8 18
62 60 55 45 39 31 22 11 7 1 356 347 337 320 288 188 288 295 313 352 345 1 8 15 14 9 11 8 16 14 21 46
59 52 48 43 38 32 20 14 16 13 6 359 339 274 193 192 208 226 292 324 332 343 355 359 359 7 7 356 352 16 36 34
55 46 43 38 36 29 22 16 17 14 9 8 359 332 196 196 184 233 270 294 319 326 332 339 346 357 3 346 353 37 59 56
48 40 36 35 34 29 24 17 17 15 12 13 20 17 218 197 205 201 230 288 303 304 310 317 326 337 349 354 352 356 23 45
39 37 36 32 26 25 21 18 18 19 18 23 25 23 28 71 181 276 308 300 301 312 301 305 317 324 327 334 348 10 23 21
39 43 39 35 32 29 24 20 21 23 24 29 30 41 49 58 65 66 57 45 33 19 21 19 10 357 348 347 360 23 28 14
45 42 37 35 33 30 26 28 28 31 34 37 31 42 53 64 70 69 64 58 52 44 29 21 17 16 16 16 18 20 22 15
47 44 37 34 36 32 33 38 35 35 34 38 40 48 55 56 59 58 58 56 52 46 43 36 31 28 24 21 19 19 19 13
56 51 46 37 36 35 41 43 37 36 36 42 47 52 57 59 58 58 53 53 50 50 47 40 38 39 36 29 27 25 21 19
Wind_Speed_850mb
72 69 64 58 50 44 38 30 24 17 10 6 3 2 6 11 15 21 26 29 34 36 39 41 42 43 45 45 46 45 45 47
64 59 52 49 41 35 28 23 19 15 10 6 3 6 12 18 24 29 34 36 38 37 36 36 39 43 44 43 43 44 46 47
53 50 44 38 31 25 20 16 13 13 10 9 13 18 25 28 31 34 35 34 31 32 34 33 32 31 31 32 34 37 41 46
43 39 33 29 23 19 16 14 13 15 19 23 25 27 28 31 34 34 31 27 28 27 26 27 28 27 28 30 36 42 42 40
37 31 25 18 12 10 10 13 17 21 25 27 27 29 27 27 27 21 18 21 21 22 24 25 26 26 29 34 39 42 44 41
29 21 13 8 11 16 19 22 25 27 28 27 27 24 21 22 14 13 17 19 26 27 27 31 34 33 33 34 37 41 42 43
18 10 7 12 17 22 23 23 25 25 24 23 16 15 17 13 10 15 18 19 23 29 33 36 33 29 29 34 37 38 37 37
8 6 12 18 20 18 18 21 20 19 21 15 9 11 12 6 12 12 13 17 20 28 32 31 37 34 27 26 35 37 37 37
5 9 15 19 17 18 17 16 14 17 18 16 12 11 9 3 9 7 11 14 19 32 30 32 23 25 27 26 29 38 41 41
15 15 17 20 19 16 16 16 19 20 16 12 12 11 9 4 2 7 10 13 19 31 32 27 18 25 23 23 27 32 34 32
19 19 21 22 21 22 21 22 21 21 17 13 9 8 5 8 3 7 7 10 18 28 35 33 28 25 24 30 35 37 37 24
25 24 23 26 25 24 24 26 24 22 18 13 8 5 2 8 3 5 7 9 17 25 32 38 34 37 32 32 37 32 31 23
26 27 28 28 26 25 25 28 27 24 21 16 8 3 4 5 4 5 6 12 17 25 32 35 36 37 36 30 32 26 29 30
27 28 25 25 24 24 26 27 28 29 25 20 11 3 5 6 6 8 10 13 15 22 29 28 27 27 30 24 20 14 25 30
26 26 23 20 22 23 25 27 28 29 30 23 14 5 1 5 5 6 10 9 12 16 22 25 23 23 20 18 19 18 20 25
22 21 21 22 23 25 25 26 26 26 26 24 19 13 7 3 2 2 4 7 7 6 11 14 14 17 16 14 13 17 24 31
20 22 26 24 22 23 24 25 23 23 23 24 21 18 18 15 12 11 11 12 15 11 7 5 6 11 15 16 15 19 27 29
24 29 31 28 24 25 23 22 21 21 21 20 18 18 19 20 20 20 20 20 21 23 22 24 18 14 13 20 26 29 30 30
27 27 30 29 26 24 22 22 20 20 22 23 20 18 21 23 24 24 23 24 24 26 28 26 25 30 32 31 33 34 33 32
27 29 31 29 25 25 25 25 23 20 20 20 19 22 22 24 25 24 24 23 24 26 26 26 27 29 30 32 34 37 38 37
Wind_Direction_850mb
118 116 112 110 108 107 104 101 89 81 69 52 28 349 317 309 311 309 312 314 313 315 314 315 314 311 310 310 307 305 304 304
119 116 112 108 105 99 94 90 84 77 65 53 3 331 321 321 314 313 317 319 320 321 319 319 318 319 317 310 306 303 303 305
116 112 109 106 104 96 87 79 66 48 16 352 345 340 330 322 317 317 320 324 325 326 325 324 323 323 321 316 316 313 308 306
115 113 110 106 97 80 55 36 13 355 331 329 326 321 313 310 312 318 325 329 336 338 341 336 336 328 321 321 319 320 319 325
118 112 103 92 70 40 355 343 335 323 324 321 319 317 314 315 325 330 336 349 355 351 345 344 339 329 320 319 315 317 324 325
120 110 90 49 1 339 328 324 321 320 318 314 312 310 312 325 344 358 3 16 356 349 348 343 335 331 324 326 329 332 328 327
110 89 24 346 333 330 331 328 328 329 328 327 314 310 332 360 30 24 24 12 357 359 351 340 339 342 338 336 338 343 358 13
89 21 350 334 332 338 332 334 343 346 345 337 321 341 342 28 33 35 8 7 3 360 356 3 0 1 7 4 6 2 11 11
16 2 357 354 350 349 0 10 9 9 355 337 323 326 340 66 30 352 349 356 351 357 6 10 21 19 21 15 17 10 7 2
47 30 30 26 25 31 34 21 14 1 348 331 318 320 328 148 10 316 336 348 344 354 11 18 24 20 39 21 4 355 352 360
63 53 52 49 41 32 24 17 6 356 345 336 314 315 327 162 271 314 316 334 352 357 13 15 20 11 18 19 14 8 8 18
62 60 55 45 39 31 22 11 7 1 356 347 337 320 288 188 288 295 313 352 345 1 8 15 14 9 11 8 16 14 21 46
59 52 48 43 38 32 20 14 16 13 6 359 339 274 193 192 208 226 292 324 332 343 355 359 359 7 7 356 352 16 36 34
55 46 43 38 36 29 22 16 17 14 9 8 359 332 196 196 184 233 270 294 319 326 332 339 346 357 3 346 353 37 59 56
48 40 36 35 34 29 24 17 17 15 12 13 20 17 218 197 205 201 230 288 303 304 310 317 326 337 349 354 352 356 23 45
39 37 36 32 26 25 21 18 18 19 18 23 25 23 28 71 181 276 308 300 301 312 301 305 317 324 327 334 348 10 23 21
39 43 39 35 32 29 24 20 21 23 24 29 30 41 49 58 65 66 57 45 33 19 21 19 10 357 348 347 360 23 28 14
45 42 37 35 33 30 26 28 28 31 34 37 31 42 53 64 70 69 64 58 52 44 29 21 17 16 16 16 18 20 22 15
47 44 37 34 36 32 33 38 35 35 34 38 40 48 55 56 59 58 58 56 52 46 43 36 31 28 24 21 19 19 19 13
56 51 46 37 36 35 41 43 37 36 36 42 47 52 57 59 58 58 53 53 50 50 47 40 38 39 36 29 27 25 21 19